Flag for Dominican Republic Weather past 2 weeks in Punta Cana, Dominican Republic

Now
84 °F

Scattered clouds.


Feels Like: 96 °F
Forecast: 79 / 88 °F
Wind: 6 mph from Southeast

Location: Punta Cana

Current Time: Aug 29, 2015 at 9:39:36 AM

Latest Report: Aug 29, 2015 at 9:00 AM


Visibility: N/A

Pressure: 30.04 "Hg

Humidity: 84%

Dew point: 79 °F

Location of Punta CanaLocation

Historic Weather in Punta Cana — Graph

°F

Punta Cana temperature yesterday

Maximum temperature yesterday: 82 °F (at 4:00 AM)
Minimum temperature yesterday: 77 °F (at 8:00 AM)
Average temperature yesterday: 79 °F

Past Weeks' High & Low Weather Summary

 TemperatureHumidityPressure
High90 °F (Aug 26, 1:00 PM)100% (Aug 16, 1:00 AM)30.07 "Hg (Aug 16, 1:00 AM)
Low73 °F (Aug 16, 7:00 PM)62% (Aug 14, 1:00 PM)29.83 "Hg (Aug 28, 4:00 AM)
Average82 °F83%29.97 "Hg
* Reported Aug 14 8:00 AM — Aug 29 8:00 AM, Punta Cana, Weather by CustomWeather, © 2015

Note: Actual official high and low records may vary slightly from our data, if they occured in-between our weather recording intervals... More about our weather records

Advertising

Punta Cana weather history for previous 24 hours

 ConditionsComfort  
Time TempWeatherWind HumidityBarometerVisibility
8:00 AM
Sat, Aug 29
82 °FBroken clouds.7 mph84%30.01 "HgN/A
7:00 AM82 °FPartly sunny.6 mph84%30.01 "HgN/A
6:00 AM81 °FPartly cloudy.No wind89%29.98 "HgN/A
5:00 AM82 °FPartly cloudy.No wind84%29.98 "HgN/A
4:00 AM79 °FPartly cloudy.No wind89%30.01 "HgN/A
3:00 AM79 °FPartly cloudy.No wind94%29.98 "HgN/A
2:00 AM81 °FPartly cloudy.7 mph89%30.01 "HgN/A
1:00 AM81 °FPartly cloudy.5 mph84%30.01 "HgN/A
12:00 AM82 °FPartly cloudy.9 mph89%30.01 "HgN/A
11:00 PM
Fri, Aug 28
82 °FPartly cloudy.12 mph89%30.01 "HgN/A
10:00 PM81 °FMostly cloudy.14 mph94%30.01 "HgN/A
9:00 PM81 °FMostly cloudy.12 mph89%29.98 "HgN/A
8:00 PM79 °FLight rain. Mostly cloudy.7 mph89%29.98 "Hg5 mi
7:00 PM79 °FLight rain. Mostly cloudy.9 mph84%29.98 "Hg5 mi
6:00 PM79 °FLight rain. More clouds than sun.14 mph89%29.95 "Hg5 mi
5:00 PM79 °FLight rain. More clouds than sun.18 mph84%29.95 "Hg5 mi
4:00 PM81 °FMostly cloudy.16 mph84%29.92 "HgN/A
3:00 PM81 °FLight rain. Mostly cloudy.10 mph79%29.95 "Hg5 mi
2:00 PM77 °FLight rain. Mostly cloudy.18 mph83%29.95 "Hg5 mi
1:00 PM77 °FLight rain. Mostly cloudy.25 mph89%29.98 "Hg5 mi
12:00 PM77 °FLight rain. Mostly cloudy.23 mph89%29.95 "Hg5 mi
11:00 AM81 °FScattered showers. Mostly cloudy.14 mph79%29.95 "Hg5 mi
10:00 AM81 °FLight rain. Mostly cloudy.23 mph79%29.92 "Hg5 mi
9:00 AM77 °FLight rain. Mostly cloudy.21 mph94%29.92 "Hg5 mi
Weather by CustomWeather, © 2015

See weather overviewHow to use our weather pages